STARLINK-33722, 63571

Orbit data source: Space-Track

STARLINK-33722, 63571 is a payload satellite owned by SpaceX/Seattle (US) in LEO that was launched on Mon, 14 Apr 2025 UTC via an FALCON 9 launch vehicle from the Air Force Eastern Test Range (AFETR). Payload-class satellites include a variety of spacecraft equipped with specific instruments for various scientific and technological missions. These include communications satellites like Starlink; space stations such as the ISS; scientific satellites like the Hubble; Earth observation satellites from companies like Planet Labs, Umbra, and HawkEye 360; GPS; miniature CubeSats for education and research; and military/defense satellites.

Loading next visibility...
Identifier
63571, 2025-076C
Orbit
LEO
Country
Flag of USUS
Related business
Manufacturer
SpaceX/Seattle
Mission
Operational Commercial Communications
Bus & Motor
STARLINK V2MO, Unknown motor
Mass
575 kg wet, ~530 kg dry
Launch date (UTC)
2025-04-14 (8 months ago)
Launch vehicle
FALCON 9
Launch site
Air Force Eastern Test Range (AFETR)
Object type
Payload
Rocket body
Debris
Shape & HBR
Box + 2 Pan, 17.7 m
Radar Cross Section
36.964 m², Large (>1 m²)

Expand to show TLE details & history
Last TLE update: 23 hours ago

TLE from 23 hours ago
0 STARLINK-33722
1 63571U 25076C   25347.65298852  .00032850  00000-0  11954-2 0  9998
2 63571  43.0009  87.4675 0002008 295.0651  64.9992 15.27650758 38663
Epoch: 2025-12-13T15:40Z
TLE epoch observation values (Epoch: 2025-12-13T15:40:18.208Z)
Latitude
-0.00001°
Longitude
129.81445°
Altitude
482.031 km
Speed
7.627 km/s
True Right ascension
05h 49m 52s
True Declination
0° 00' 00"
Sunlit
Object was in full shadow at epoch
Visualization orbit readout
Latitude
Unknown
Longitude
Unknown
Altitude
Unknown
Speed
Unknown
Apparent Right ascension
Unknown
Apparent Declination
Unknown
Sunlit
N/A
Visualization observer readout
Local Sidereal Time
13:04:43
Azimuth
Unknown
Elevation
Unknown
Doppler factor
Unknown
Orbital elements
Apogee altitude
486.16 km
Perigee altitude
483.404 km
Semi-major axis
6,862.919 km
Eccentricity
0.0002
Inclination
43.0009°
RAAN
87.4675°
Arg. of periapsis
295.0651°
True anomaly
65.02006°
Mean anomaly
64.9992°
Eccentric anomaly
65.00963°
Mean motion
3.81751 °/min
Orbital period
94.3 mins
BSTAR
0.0011954
Loading maneuver chart data...
Computing Atmospheric mass density...
Loading historical data...
Loading historical data...
Loading historical data...
Loading historical data...
Loading historical data...
Loading historical data...
Loading historical data...

Documentation

Showing up to 5 results
|